User: anonymous   Login
Location: Unspecified
(0.0000°N, 0.0000°E)
Time: 12:08:14
(UTC+02:00)
Language:

GPS 2-05 Rocket1 - Orbit

View from above orbital plane
View from above orbital plane
View from above satellite
View from above satellite

Ground track
Ground track

The orbit data is extracted from the following two-line orbital elements,

1 20362U 89097B   15184.14427814  .00007871  00000-0  19986-3 0  9995
2 20362 035.6107 165.7207 0087558 263.2572 151.7657 15.35054437389194
Epoch (UTC): 03 July 2015 03:27:45
Eccentricity: 0.0087558
inclination: 35.6107°
perigee height: 401 km
apogee height: 520 km
right ascension of ascending node: 165.7207°
argument of perigee: 263.2572°
revolutions per day: 15.35054437
mean anomaly at epoch: 151.7657°
orbit number at epoch: 38919

The dashed part of the orbit path shows where the satellite is in the earth's shadow,  

DLR